• In Netherlands
  • List of Countries
  • For 7 days
  • Water Temperature
  • Satellite Maps
  • Weather Map
  • Weather Widgets
  • user-avatar
    Login

    Hourly Weather San Juan

    Today, 19 February, Monday

    Time Temperature Precipitation Wind Pressure Humidity
    00:00 +30°C° 0.2 mm 2 mps 701 mmHg 40%
    01:00 +30°C° 0.2 mm 1 mps 701 mmHg 43%
    02:00 +29°C° 0.5 mm 1 mps 701 mmHg 44%
    03:00 +29°C° 0.5 mm 1 mps 701 mmHg 46%
    04:00 +28°C° 0.5 mm 1 mps 701 mmHg 47%
    05:00 +28°C° 0.8 mm 2 mps 701 mmHg 47%
    06:00 +29°C° 0.8 mm 3 mps 702 mmHg 47%
    07:00 +29°C° 0.8 mm 4 mps 702 mmHg 47%
    08:00 +30°C° 1.1 mm 5 mps 702 mmHg 46%
    09:00 +30°C° 1.1 mm 6 mps 702 mmHg 45%
    10:00 +32°C° 1.1 mm 7 mps 702 mmHg 44%
    11:00 +32°C° 1 mm 7 mps 702 mmHg 43%
    12:00 +32°C° 1 mm 6 mps 701 mmHg 42%
    13:00 +33°C° 1 mm 6 mps 701 mmHg 41%
    14:00 +33°C° 0.9 mm 5 mps 701 mmHg 41%
    15:00 +33°C° 0.9 mm 5 mps 700 mmHg 41%
    16:00 +33°C° 0.9 mm 4 mps 700 mmHg 40%
    17:00 +32°C° 1.2 mm 4 mps 700 mmHg 42%
    18:00 +30°C° 1.2 mm 4 mps 701 mmHg 44%
    19:00 +29°C° 1.2 mm 3 mps 701 mmHg 46%
    20:00 +29°C° 1.2 mm 3 mps 702 mmHg 47%
    21:00 +28°C° 1.2 mm 3 mps 702 mmHg 47%
    22:00 +28°C° 1.2 mm 3 mps 702 mmHg 48%
    23:00 +27°C° 0.6 mm 2 mps 702 mmHg 49%

    Tomorrow, 20 February, Tuesday

    Time Temperature Precipitation Wind Pressure Humidity
    00:00 +27°C° 0.6 mm 2 mps 703 mmHg 50%
    01:00 +27°C° 0.6 mm 2 mps 703 mmHg 50%
    02:00 +26°C° 0.3 mm 2 mps 703 mmHg 52%
    03:00 +26°C° 0.3 mm 2 mps 703 mmHg 53%
    04:00 +26°C° 0.3 mm 2 mps 703 mmHg 54%
    05:00 +26°C° 0.2 mm 3 mps 704 mmHg 51%
    06:00 +25°C° 0.2 mm 5 mps 704 mmHg 48%
    07:00 +24°C° 0.2 mm 7 mps 705 mmHg 45%
    08:00 +26°C° 0.1 mm 6 mps 705 mmHg 42%
    09:00 +27°C° 0.1 mm 6 mps 705 mmHg 39%
    10:00 +28°C° 0.1 mm 6 mps 706 mmHg 36%
    11:00 +29°C° 0 mm 6 mps 705 mmHg 35%
    12:00 +29°C° 0 mm 6 mps 705 mmHg 34%
    13:00 +30°C° 0 mm 6 mps 705 mmHg 32%
    14:00 +30°C° 0 mm 6 mps 704 mmHg 33%
    15:00 +32°C° 0 mm 6 mps 704 mmHg 33%
    16:00 +32°C° 0 mm 6 mps 704 mmHg 33%
    17:00 +30°C° 0 mm 5 mps 705 mmHg 35%
    18:00 +29°C° 0 mm 5 mps 705 mmHg 38%
    19:00 +28°C° 0 mm 4 mps 706 mmHg 40%
    20:00 +28°C° 0 mm 4 mps 707 mmHg 41%
    21:00 +27°C° 0 mm 4 mps 707 mmHg 42%
    22:00 +27°C° 0 mm 3 mps 708 mmHg 43%
    23:00 +26°C° 0 mm 3 mps 708 mmHg 45%

    Day after tomorrow, 21 February, Wednesday

    Time Temperature Precipitation Wind Pressure Humidity
    00:00 +26°C° 0 mm 2 mps 708 mmHg 46%
    01:00 +25°C° 0 mm 2 mps 708 mmHg 47%
    02:00 +25°C° 0 mm 1 mps 708 mmHg 49%
    03:00 +25°C° 0 mm 1 mps 708 mmHg 50%
    04:00 +24°C° 0 mm 1 mps 708 mmHg 51%
    05:00 +25°C° 0 mm 1 mps 708 mmHg 49%
    06:00 +25°C° 0 mm 1 mps 708 mmHg 47%
    07:00 +26°C° 0 mm 1 mps 709 mmHg 45%
    08:00 +27°C° 0 mm 2 mps 709 mmHg 42%
    09:00 +29°C° 0 mm 3 mps 709 mmHg 38%
    10:00 +30°C° 0 mm 4 mps 708 mmHg 35%
    11:00 +32°C° 0 mm 4 mps 708 mmHg 33%
    12:00 +33°C° 0 mm 4 mps 707 mmHg 31%
    13:00 +34°C° 0 mm 4 mps 706 mmHg 28%
    14:00 +35°C° 0 mm 4 mps 705 mmHg 28%
    15:00 +35°C° 0 mm 4 mps 705 mmHg 27%
    16:00 +35°C° 0 mm 4 mps 704 mmHg 26%
    17:00 +34°C° 0 mm 4 mps 704 mmHg 29%
    18:00 +33°C° 0 mm 4 mps 705 mmHg 31%
    19:00 +31°C° 0 mm 3 mps 705 mmHg 33%
    20:00 +31°C° 0.1 mm 3 mps 705 mmHg 34%
    21:00 +30°C° 0.1 mm 3 mps 706 mmHg 36%
    22:00 +29°C° 0.1 mm 3 mps 706 mmHg 38%
    23:00 +29°C° 0 mm 3 mps 706 mmHg 38%

    22 February, Thursday

    Time Temperature Precipitation Wind Pressure Humidity
    00:00 +28°C° 0 mm 3 mps 705 mmHg 38%
    01:00 +28°C° 0 mm 3 mps 705 mmHg 38%
    02:00 +28°C° 0 mm 3 mps 705 mmHg 38%
    03:00 +27°C° 0 mm 3 mps 705 mmHg 38%
    04:00 +27°C° 0 mm 2 mps 705 mmHg 38%
    05:00 +27°C° 0 mm 2 mps 705 mmHg 37%
    06:00 +28°C° 0 mm 2 mps 706 mmHg 36%
    07:00 +29°C° 0 mm 2 mps 706 mmHg 34%
    08:00 +30°C° 0 mm 2 mps 706 mmHg 33%
    09:00 +31°C° 0 mm 2 mps 706 mmHg 32%
    10:00 +32°C° 0 mm 2 mps 706 mmHg 30%
    11:00 +34°C° 0 mm 2 mps 706 mmHg 29%
    12:00 +34°C° 0 mm 2 mps 705 mmHg 28%
    13:00 +35°C° 0 mm 2 mps 704 mmHg 26%
    14:00 +35°C° 0.1 mm 2 mps 704 mmHg 26%
    15:00 +35°C° 0.1 mm 2 mps 703 mmHg 26%
    16:00 +36°C° 0.1 mm 3 mps 702 mmHg 26%
    17:00 +35°C° 0.3 mm 3 mps 703 mmHg 28%
    18:00 +34°C° 0.3 mm 3 mps 703 mmHg 30%
    19:00 +33°C° 0.3 mm 3 mps 704 mmHg 31%
    20:00 +31°C° 0.2 mm 3 mps 704 mmHg 33%
    21:00 +31°C° 0.2 mm 3 mps 705 mmHg 34%
    22:00 +30°C° 0.2 mm 3 mps 706 mmHg 36%
    23:00 +28°C° 0.5 mm 6 mps 706 mmHg 42%

    23 February, Friday

    Time Temperature Precipitation Wind Pressure Humidity
    00:00 +26°C° 0.5 mm 8 mps 706 mmHg 48%
    01:00 +23°C° 0.5 mm 11 mps 706 mmHg 54%
    02:00 +22°C° 0.1 mm 10 mps 706 mmHg 57%
    03:00 +21°C° 0.1 mm 8 mps 707 mmHg 60%
    04:00 +20°C° 0.1 mm 7 mps 707 mmHg 63%
    05:00 +20°C° 0 mm 7 mps 708 mmHg 62%
    06:00 +20°C° 0 mm 6 mps 708 mmHg 62%
    07:00 +20°C° 0 mm 6 mps 709 mmHg 62%
    08:00 +21°C° 0 mm 6 mps 709 mmHg 58%
    09:00 +22°C° 0 mm 5 mps 709 mmHg 53%
    10:00 +23°C° 0 mm 5 mps 709 mmHg 49%
    11:00 +25°C° 0 mm 5 mps 708 mmHg 46%
    12:00 +26°C° 0 mm 5 mps 708 mmHg 44%
    13:00 +27°C° 0 mm 5 mps 707 mmHg 41%
    14:00 +27°C° 0 mm 5 mps 707 mmHg 40%
    15:00 +27°C° 0 mm 5 mps 706 mmHg 40%
    16:00 +28°C° 0 mm 4 mps 706 mmHg 40%
    17:00 +27°C° 0 mm 4 mps 707 mmHg 42%
    18:00 +26°C° 0 mm 4 mps 707 mmHg 44%
    19:00 +26°C° 0 mm 3 mps 708 mmHg 46%
    20:00 +25°C° 0 mm 3 mps 708 mmHg 47%
    21:00 +25°C° 0 mm 3 mps 709 mmHg 48%
    22:00 +24°C° 0 mm 2 mps 709 mmHg 49%
    23:00 +24°C° 0 mm 2 mps 709 mmHg 50%

    24 February, Saturday

    Time Temperature Precipitation Wind Pressure Humidity
    00:00 +24°C° 0 mm 1 mps 708 mmHg 51%
    01:00 +23°C° 0 mm 1 mps 708 mmHg 52%
    02:00 +23°C° 0 mm 1 mps 708 mmHg 52%
    03:00 +23°C° 0 mm 1 mps 708 mmHg 53%
    04:00 +21°C° 0 mm 0 mps 708 mmHg 54%
    05:00 +23°C° 0 mm 1 mps 708 mmHg 52%
    06:00 +24°C° 0 mm 1 mps 708 mmHg 50%
    07:00 +24°C° 0 mm 1 mps 708 mmHg 47%
    08:00 +26°C° 0 mm 1 mps 708 mmHg 44%
    09:00 +27°C° 0 mm 2 mps 708 mmHg 40%
    10:00 +28°C° 0 mm 2 mps 708 mmHg 37%
    11:00 +29°C° 0 mm 2 mps 707 mmHg 34%
    12:00 +30°C° 0 mm 2 mps 707 mmHg 32%
    13:00 +31°C° 0 mm 2 mps 706 mmHg 30%
    14:00 +32°C° 0 mm 2 mps 706 mmHg 30%
    15:00 +32°C° 0 mm 2 mps 705 mmHg 29%
    16:00 +32°C° 0 mm 2 mps 705 mmHg 29%
    17:00 +31°C° 0.1 mm 2 mps 705 mmHg 30%
    18:00 +31°C° 0.1 mm 2 mps 705 mmHg 31%
    19:00 +30°C° 0.1 mm 1 mps 706 mmHg 32%
    20:00 +30°C° 0.1 mm 2 mps 706 mmHg 33%
    21:00 +29°C° 0.1 mm 2 mps 706 mmHg 35%
    22:00 +28°C° 0.1 mm 2 mps 706 mmHg 36%
    23:00 +28°C° 0.1 mm 2 mps 706 mmHg 37%
    Show more